Temp
21 24 26 28 27 24 23 23 22 22 20 18 18 17 17 17 19 20 21 21 20 19 19 18 19 18 18 18 18 18 17 16 16 16 16 17 18 18 18 18 17 16 16
19 20 23 24 26 27 24 23 23 21 21 19 18 18 17 17 19 19 19 20 20 19 19 19 19 18 18 18 18 18 17 16 16 15 14 13 15 16 16 16 16 15 15
19 20 20 20 24 24 25 25 23 21 21 19 18 18 18 18 17 17 18 19 20 20 19 19 19 18 18 18 18 17 17 16 14 15 15 12 12 9 15 16 15 14 14
19 19 20 20 21 23 22 22 22 20 19 18 18 18 19 18 18 17 17 19 19 19 19 19 19 18 18 18 18 17 17 16 15 13 14 14 13 11 10 13 13 12 12
19 20 21 22 26 24 24 21 20 19 18 18 18 18 18 19 19 18 17 18 19 19 19 19 19 19 18 18 18 17 16 16 16 15 13 12 11 11 9 8 9 10 10
19 19 20 23 23 24 22 21 20 19 18 18 18 18 18 18 18 17 17 17 18 19 19 19 19 18 18 18 17 16 15 16 16 15 14 13 11 8 7 6 6 7 8
18 19 20 19 21 23 23 20 20 19 18 18 18 18 18 18 18 17 17 16 18 18 18 18 18 17 18 17 16 15 15 15 15 14 12 11 10 9 7 6 5 4 5
18 19 19 19 20 22 23 21 20 20 19 18 18 18 18 18 18 17 17 17 18 18 18 17 17 17 17 16 15 15 14 13 12 12 11 9 8 7 6 5 3 3 3
18 18 18 18 20 21 22 23 22 20 19 18 18 18 18 17 17 17 17 17 17 17 17 17 17 16 16 15 14 14 13 12 11 10 9 8 7 6 5 4 3 2 2
19 19 17 17 21 22 23 21 21 21 21 19 18 18 18 17 17 17 16 16 16 17 17 16 16 14 14 13 13 12 12 11 10 9 8 7 6 4 4 3 2 1 1
16 18 18 18 18 19 19 19 18 18 18 18 18 18 17 17 16 16 15 16 16 16 15 15 13 13 13 12 12 11 11 9 8 7 6 5 4 4 3 2 1 1 0
14 14 14 14 15 17 18 17 16 17 17 17 17 17 16 16 15 15 15 15 14 13 13 12 12 12 11 10 11 10 9 8 7 6 5 4 3 3 2 1 1 0 1
14 14 14 14 14 15 15 15 16 17 17 17 16 16 15 14 14 14 14 13 13 12 12 12 11 10 9 9 10 9 8 7 6 5 4 4 3 2 1 0 0 0 0
13 13 14 14 13 15 15 14 15 17 17 16 15 13 12 13 13 13 12 12 12 11 11 11 11 9 8 9 9 7 7 6 4 4 4 3 2 1 0 -0 -0 -0 -1
14 14 14 14 14 14 15 13 14 15 15 14 12 12 12 12 12 11 11 11 11 10 11 10 10 9 8 8 8 7 6 5 4 3 3 2 1 -0 -1 -1 -1 -1 -2
13 14 15 14 14 13 14 14 12 13 13 12 11 11 11 11 10 9 10 9 9 9 10 10 9 7 7 6 6 6 5 4 3 3 2 2 0 -0 -2 -1 -2 -2 -2
13 14 14 14 14 14 15 14 13 11 11 11 11 10 9 9 9 9 8 7 8 9 8 8 8 6 5 4 4 3 4 3 3 2 1 1 -0 -2 -2 -2 -2 -2 -2
13 13 13 13 14 14 14 15 13 11 10 10 9 9 8 8 7 7 6 6 6 7 7 6 6 5 4 3 2 3 3 2 1 1 1 -0 -1 -1 -2 -2 -2 -2 -2
11 11 13 12 13 13 13 14 11 10 9 8 8 8 8 6 6 5 5 5 5 5 4 5 4 3 1 1 2 4 2 1 0 -0 -1 -1 -1 -1 -1 -2 -3 -3 -3
9 11 13 13 12 12 13 13 10 9 8 8 8 8 6 5 4 4 3 3 4 3 2 2 3 2 1 1 1 2 1 0 -1 -1 -1 -1 -1 -1 -2 -2 -3 -3 -3
9 11 11 11 11 11 11 11 10 9 10 9 8 7 6 4 3 2 2 2 1 -0 -1 -0 1 1 1 -1 -0 1 1 0 -1 -1 -1 -1 -1 -2 -2 -3 -3 -3 -3
10 10 9 10 11 10 10 10 10 10 10 8 7 5 5 3 2 1 -0 -1 -1 -2 -2 -2 -2 -1 -0 -0 -1 -1 -1 -1 -1 -1 -1 -1 -2 -2 -2 -3 -3 -3 -3
9 10 10 10 10 9 8 8 10 9 8 6 4 3 3 1 1 0 -1 -1 -1 -1 -2 -2 -2 -2 -1 -1 -1 -1 -2 -1 -1 -1 -1 -2 -2 -2 -3 -3 -3 -3 -3
8 9 9 7 7 7 5 7 8 8 5 3 2 1 1 0 0 -0 -0 -1 -1 -1 -1 -1 -2 -2 -2 -2 -2 -2 -2 -1 -1 -1 -1 -2 -2 -2 -3 -3 -3 -3 -3
8 8 7 6 5 4 3 4 5 5 3 2 1 1 0 -0 -0 -0 -1 -1 -0 0 -0 -1 -1 -2 -2 -2 -1 -1 -1 -1 -1 -1 -2 -2 -2 -2 -3 -3 -3 -3 -4
8 7 5 4 3 3 2 2 3 3 1 0 0 -0 -0 -0 -0 -1 -1 1 2 3 2 2 3 1 1 -1 -1 -1 -1 -1 -1 -1 -2 -2 -2 -3 -3 -3 -3 -3 -3
Height
712 712 712 712 713 716 718 721 723 726 732 737 741 746 745 750 755 759 764 768 772 777 782 786 790 794 797 800 804 807 808 811 813 815 816 815 816 816 816 816 816 817 817
710 708 707 707 707 706 707 711 712 717 720 726 730 739 741 743 749 753 758 763 766 771 775 779 784 788 793 795 798 801 804 807 810 813 815 817 814 812 813 814 815 815 814
700 696 696 698 699 698 698 699 702 705 709 717 726 732 741 744 745 746 749 754 760 764 768 773 778 782 787 790 792 797 800 803 807 810 813 818 818 814 810 810 811 812 812
694 693 690 688 690 688 691 694 695 700 704 711 718 720 720 727 727 734 741 746 754 759 764 768 773 777 782 785 788 792 796 799 802 807 808 809 811 814 812 807 807 807 808
689 687 684 681 680 683 684 688 694 699 701 705 708 714 716 721 724 731 736 742 748 754 759 764 768 773 778 782 785 789 791 794 797 801 804 807 808 809 811 810 804 803 803
681 680 677 677 677 679 680 683 687 690 696 701 703 705 710 716 718 724 731 737 742 748 754 758 763 768 773 776 780 783 787 788 792 796 798 800 804 806 808 811 807 805 800
678 678 677 676 676 675 677 679 683 686 689 694 699 700 704 708 711 715 723 731 738 743 747 752 756 760 765 770 775 779 783 786 789 792 795 799 801 803 805 807 807 806 800
677 676 674 672 672 673 673 674 677 679 682 686 689 694 700 703 708 715 719 724 728 733 739 746 753 757 761 766 771 777 781 785 789 790 795 798 800 801 802 803 805 803 800
673 672 669 667 667 667 669 670 672 672 676 678 683 687 690 697 702 707 713 718 722 728 736 741 747 753 759 763 769 773 778 784 787 790 793 795 797 798 800 801 802 804 802
667 664 663 661 661 661 661 662 663 663 664 669 675 680 685 690 696 700 706 710 717 724 730 738 744 751 756 761 766 773 777 781 785 788 791 792 794 795 797 798 800 800 802
671 665 659 657 658 657 656 655 655 656 657 660 666 671 676 683 690 695 701 708 715 721 727 735 741 746 752 759 763 772 774 779 783 786 787 788 792 793 794 796 796 797 799
673 669 663 660 657 653 652 651 651 651 654 655 659 661 669 677 684 691 696 705 711 719 724 732 739 746 752 759 761 768 771 775 780 783 783 786 788 789 791 792 792 794 794
670 667 663 660 656 653 651 650 649 650 651 653 656 659 664 672 679 687 694 701 708 715 722 729 739 744 750 757 758 764 768 770 777 779 780 784 785 786 788 789 789 790 791
671 666 662 659 653 651 649 648 649 651 651 651 654 657 663 670 677 684 690 696 704 712 719 728 735 743 751 752 757 762 761 766 772 775 777 780 782 782 785 786 787 787 786
670 666 664 658 652 649 646 645 646 649 650 651 654 657 662 667 673 679 686 692 701 709 717 724 732 738 747 750 752 759 760 765 769 771 775 778 780 780 783 784 783 783 784
670 663 660 657 654 650 647 644 644 645 648 651 653 655 659 665 670 676 681 690 698 706 714 722 729 737 740 747 751 755 758 763 767 770 773 776 778 779 781 781 781 781 779
669 662 658 655 651 648 645 643 642 644 644 646 650 654 658 662 667 674 678 687 693 702 711 717 726 733 740 745 750 755 755 761 765 769 772 775 777 779 779 778 777 776 776
665 658 657 652 646 645 644 640 639 639 641 641 646 651 655 660 665 671 675 683 691 700 708 714 723 730 738 743 748 752 755 757 761 766 769 773 775 777 777 776 774 772 771
662 657 653 648 641 640 642 638 634 635 637 636 637 642 648 653 660 666 673 682 690 699 708 716 722 729 736 742 746 748 752 757 760 764 767 769 773 774 775 775 770 769 768
656 653 647 642 639 636 637 633 629 631 630 630 630 636 643 648 653 661 672 680 690 697 707 716 724 729 735 740 743 746 750 754 759 762 764 767 770 771 771 771 769 768 767
649 645 641 637 631 632 632 627 625 619 621 628 628 633 639 649 656 661 671 679 688 698 709 717 724 729 733 739 744 746 749 753 757 759 764 767 768 769 769 768 768 767 766
637 635 634 630 626 625 627 620 615 610 619 623 626 629 638 644 655 661 672 680 687 698 710 718 725 732 734 739 742 745 751 753 755 760 764 768 768 767 768 766 766 767 765
630 627 626 622 617 617 616 614 604 607 615 617 622 625 637 643 651 659 670 681 689 696 707 717 726 731 737 742 744 748 752 754 755 758 762 766 768 766 766 766 766 766 764
623 619 617 614 609 606 608 605 602 606 610 610 619 623 634 643 650 662 669 676 686 695 702 714 722 728 736 741 747 751 755 757 756 759 762 766 768 764 766 766 767 767 765
612 611 608 604 600 599 599 597 596 599 603 611 623 625 637 644 649 662 668 674 685 690 697 707 715 722 730 736 742 748 753 757 757 760 763 766 766 764 764 766 767 767 766
597 598 598 597 593 595 596 596 598 594 599 612 623 625 636 649 650 661 671 680 685 691 701 707 711 720 728 734 740 746 752 755 759 760 762 765 765 764 765 767 768 768 767
Wind_Speed
12 25 31 35 39 35 37 40 39 42 40 38 36 32 35 36 39 39 38 36 34 33 33 32 29 26 26 25 22 21 20 18 14 8 10 16 18 19 20 19 11 3 6
9 10 23 27 34 38 41 40 45 40 44 40 39 28 28 31 37 38 38 36 33 32 32 33 30 28 27 25 24 24 17 14 12 4 1 3 4 4 5 6 6 6 8
10 10 8 18 24 34 39 42 44 44 46 40 32 26 21 17 26 30 36 38 34 32 31 31 30 30 29 26 25 23 22 15 11 11 5 2 4 3 4 8 9 8 12
9 8 10 10 18 24 29 33 35 36 37 37 33 38 36 25 31 30 31 38 36 33 31 30 30 30 30 29 24 22 21 19 15 10 10 8 4 3 3 5 9 10 14
9 11 10 16 24 14 20 25 27 29 31 37 38 36 30 27 24 26 28 35 36 32 30 30 29 28 30 27 24 23 23 21 17 12 7 9 8 8 4 3 5 15 14
10 10 13 17 20 14 13 20 26 31 32 36 38 37 34 27 26 28 28 33 37 34 33 33 30 28 28 28 25 24 23 20 16 15 13 10 5 5 5 3 4 7 17
8 7 8 7 11 14 14 17 25 28 32 34 34 35 34 33 33 32 30 32 36 33 34 34 33 32 32 29 27 24 21 18 15 13 11 9 9 8 6 6 5 4 7
6 8 9 8 12 14 14 17 24 29 33 35 37 35 32 33 30 28 28 36 41 40 36 33 32 32 31 29 26 22 18 15 12 11 8 8 7 7 7 5 2 3 4
9 10 10 9 17 18 20 23 27 31 29 35 33 34 36 33 30 31 35 37 40 39 36 35 34 32 31 29 26 23 19 13 14 10 9 8 7 7 6 6 5 3 3
11 11 9 10 19 22 28 26 31 34 38 37 34 35 32 31 32 37 39 38 38 38 36 35 34 33 30 27 23 17 16 16 13 10 9 6 6 5 5 5 6 6 6
10 10 10 8 11 16 20 25 28 32 31 35 34 32 32 34 37 37 37 35 36 37 37 37 36 35 31 25 21 21 17 15 12 10 7 5 5 4 5 6 6 7 8
8 9 9 7 12 16 19 14 19 24 26 29 31 32 32 36 36 36 35 34 35 34 37 36 35 32 26 25 22 19 17 14 12 10 7 6 5 5 4 4 5 8 10
11 8 8 7 8 14 15 11 10 15 21 25 26 28 34 33 35 34 33 33 33 34 34 37 33 28 25 25 20 21 17 13 11 9 7 5 5 3 3 5 6 8 11
10 8 11 9 7 11 11 9 11 14 15 21 25 27 28 32 33 34 34 34 33 36 36 37 31 27 24 23 21 20 17 14 11 8 6 5 4 4 5 6 8 10 13
12 10 12 13 11 10 12 10 13 16 18 22 23 26 31 34 36 36 35 34 35 37 41 37 30 28 28 24 23 19 16 14 11 7 5 4 4 2 5 7 8 11 15
12 16 17 13 12 9 13 15 16 20 23 23 24 29 32 33 34 35 36 36 38 41 38 34 33 32 27 23 20 19 16 12 9 8 6 4 3 5 5 7 9 10 13
13 16 19 15 11 14 17 16 20 21 25 25 27 29 30 31 34 36 38 39 42 41 39 37 34 30 25 23 19 17 13 11 9 7 5 4 4 4 5 7 8 11 10
15 18 14 13 20 21 21 19 18 23 26 27 27 31 30 35 35 35 38 38 40 43 40 37 33 29 25 22 20 16 14 12 10 8 5 4 3 3 6 9 10 11 11
14 14 20 19 26 24 20 19 19 23 23 25 31 33 36 38 39 38 38 39 42 39 36 34 32 30 26 21 19 18 15 12 10 8 6 3 4 3 6 9 9 11 10
11 12 27 27 24 23 19 17 17 20 24 28 33 35 32 34 36 38 38 38 38 37 35 33 30 27 25 22 20 17 14 13 13 10 6 5 4 3 4 6 7 9 11
11 22 23 20 27 22 21 18 17 23 30 25 27 30 31 30 30 35 35 38 35 33 30 31 27 26 24 21 17 15 14 14 14 9 7 6 4 2 4 4 6 7 8
14 16 12 21 29 23 18 20 18 25 24 28 28 30 31 32 32 34 32 32 34 31 27 26 24 23 22 20 16 13 12 13 11 8 7 4 3 1 3 4 5 5 5
15 21 20 23 29 22 14 21 27 20 29 31 28 31 31 32 35 35 33 30 30 30 26 23 20 21 20 16 13 12 13 11 10 9 7 5 4 3 4 5 6 6 7
13 23 20 14 15 17 18 26 21 27 33 27 27 33 32 31 32 29 31 30 28 26 27 23 20 21 21 16 13 13 11 11 11 10 9 7 4 5 6 7 7 7 8
13 18 14 13 15 15 11 10 25 32 26 26 25 27 27 29 30 26 27 29 26 33 32 27 29 27 23 22 18 17 16 13 12 13 11 8 5 6 7 7 6 7 7
15 14 16 15 12 9 7 16 25 32 33 27 25 27 27 26 29 30 28 28 33 33 29 29 26 24 19 20 19 18 15 15 14 13 12 8 6 7 7 5 6 7 8
Wind_Direction
235 238 244 243 244 229 225 222 221 225 216 207 205 211 212 214 222 225 227 227 226 226 225 227 226 224 224 225 228 229 229 232 236 240 262 271 273 272 273 278 276 256 282
218 214 229 235 235 236 229 223 224 217 217 207 207 207 207 214 218 222 226 225 223 223 223 223 223 222 220 224 224 220 212 213 213 194 164 334 305 279 272 261 275 277 296
259 268 238 210 231 230 227 223 221 215 215 206 195 197 195 212 208 213 218 222 222 220 218 220 221 221 220 222 221 219 214 194 199 209 188 146 233 309 265 256 256 271 294
239 248 263 270 219 236 236 226 217 212 207 196 194 193 196 196 208 206 207 217 217 218 219 220 221 222 221 223 213 213 214 213 194 190 208 220 213 190 313 270 259 278 302
234 246 249 251 272 260 241 228 219 210 202 198 199 199 201 208 201 198 199 208 211 213 215 219 218 223 223 217 213 210 210 209 201 190 185 208 218 229 196 275 292 307 311
239 242 252 273 279 278 247 220 213 209 203 202 202 202 204 200 186 191 194 200 208 209 217 219 221 223 217 210 211 208 204 203 207 207 213 201 186 200 197 229 290 286 303
250 271 283 279 274 268 248 213 207 207 206 205 208 208 206 201 196 187 191 194 203 206 211 212 213 209 205 207 205 201 201 205 207 210 207 217 220 228 230 246 263 265 300
275 263 262 261 261 249 239 225 218 217 213 208 210 210 209 205 201 194 191 202 205 206 202 202 204 203 203 198 195 194 199 200 202 197 201 208 224 233 243 233 217 295 258
252 239 251 249 254 256 241 233 230 228 217 215 210 211 207 207 197 187 207 209 207 204 200 202 200 198 193 192 189 191 189 199 199 194 200 206 219 242 255 253 260 206 306
258 258 234 237 249 266 273 264 238 225 223 217 208 208 205 198 193 196 208 208 205 201 197 197 195 191 186 183 181 184 189 190 189 193 198 212 226 232 252 265 267 252 247
301 297 301 300 282 290 292 277 241 223 212 206 202 197 192 193 199 203 203 202 200 197 194 193 189 182 180 180 182 187 184 186 187 198 204 208 230 253 275 286 282 280 269
312 309 305 311 315 316 305 277 247 220 212 200 192 185 184 192 191 199 196 198 193 192 192 188 183 179 177 180 179 188 181 185 195 198 194 212 236 265 277 283 293 293 292
323 317 324 318 303 310 299 287 254 222 202 192 182 178 181 180 186 191 191 189 188 188 188 186 177 173 180 185 184 190 185 183 193 194 198 220 241 256 283 294 298 299 294
314 326 324 315 307 313 291 269 266 245 219 189 179 172 172 178 184 189 187 186 187 187 184 177 177 181 191 182 182 187 178 178 184 192 204 220 236 264 282 294 293 297 304
317 321 315 312 308 312 305 270 234 227 206 185 175 173 180 187 190 185 182 181 183 185 178 174 181 183 187 185 184 185 176 178 181 181 196 221 257 261 265 277 289 301 305
304 311 313 307 304 296 290 268 229 209 204 188 181 184 183 180 177 178 179 180 179 176 175 178 176 180 184 185 183 181 173 176 179 180 197 228 259 266 264 274 287 296 296
300 304 304 301 305 316 298 267 243 212 191 188 190 185 177 172 175 176 173 176 174 176 178 175 180 178 176 176 175 177 166 171 178 189 206 237 269 279 294 308 307 303 294
291 293 292 299 301 308 312 296 242 214 196 186 184 183 177 177 177 171 173 171 172 175 176 174 175 171 170 170 175 169 168 170 176 189 201 232 264 292 322 312 313 314 304
272 279 286 288 297 304 308 292 225 206 196 191 186 183 183 176 177 172 169 170 169 170 170 171 168 166 162 167 169 170 171 177 177 181 186 213 257 299 311 308 323 329 321
254 274 286 291 292 298 305 284 219 202 208 199 191 189 183 176 169 169 166 165 165 163 165 163 167 167 163 171 172 169 167 165 167 178 185 215 250 277 310 321 338 334 340
250 266 272 281 289 294 298 279 232 215 222 208 185 179 176 171 165 159 161 159 154 150 152 158 162 165 166 165 168 169 172 170 173 174 199 206 210 251 336 353 357 347 344
277 258 265 277 282 286 292 289 251 239 217 190 173 164 165 161 157 151 149 149 145 141 144 145 151 162 163 167 168 171 182 172 163 177 170 183 171 117 8 40 30 17 29
275 269 265 269 276 279 282 282 275 224 187 168 156 150 152 150 152 148 146 142 145 143 143 145 148 156 166 169 171 175 177 172 162 149 151 150 144 81 65 51 45 41 47
255 263 260 256 266 279 293 282 257 192 168 145 144 144 143 145 145 150 150 148 148 144 143 147 147 152 167 170 174 173 172 173 150 147 144 148 142 100 77 66 51 48 43
251 248 247 254 258 286 301 238 187 166 143 137 144 139 143 144 139 144 148 147 149 155 153 159 160 158 170 180 175 172 175 169 153 150 152 148 142 111 85 76 64 52 46
264 257 240 232 242 237 186 172 165 152 141 138 142 140 141 146 139 137 126 150 159 164 167 167 166 171 174 163 160 164 168 162 162 156 147 138 124 98 91 78 67 55 48